SCP
0 0 0 0 0 0 0 0 0 0 0 0 0 0 0 0 0 0 0 0 0 0 0 0 0 0 0 0 0 0 0 0 0 0 0 0 0 0 0 0 0 0 0
0 0 0 0 0 0 0 0 0 0 0 0 0 0 0 0 0 0 0 0 0 0 0 0 0 0 0 0 0 0 0 0 0 0 0 0 0 0 0 0 0 0 0
0 0 0 0 0 0 0 0 0 0 0 0 0 0 0 0 0 0 0 0 0 0 0 0 0 0 0 0 0 0 0 0 0 0 0 0 0 0 0 0 0 0 0
0 0 0 0 0 0 0 0 0 0 0 0 0 0 0 0 0 0 0 0 0 0 0 0 0 0 0 0 0 0 0 0 0 0 0 0 0 0 0 0 0 0 0
0 0 0 0 0 0 0 0 0 0 0 0 0 0 0 0 0 0 0 0 0 0 0 0 0 0 0 0 0 0 0 0 0 0 0 0 0 0 0 0 0 0 0
0 0 0 0 0 0 0 0 0 0 0 0 0 0 0 0 0 0 0 0 0 0 0 0 0 0 0 0 0 0 0 0 0 0 0 0 0 0 0 0 0 0 0
0 0 0 0 0 0 0 0 0 0 0 0 0 0 0 0 0 0 0 0 0 0 0 0 0 0 0 0 0 0 0 0 0 0 0 0 0 0 0 0 0 0 0
0 0 0 0 0 0 0 0 0 0 0 0 0 0 0 0 0 0 0 0 0 0 0 0 0 0 0 0 0 0 0 0 0 0 0 0 0 0 0 0 0 0 0
0 0 0 0 0 0 0 0 0 0 0 0 0 0 0 0 0 0 0 0 0 0 0 0 0 0 0 0 0 0 0 0 0 0 0 0 0 0 0 0 0 0 0
0 0 0 0 0 0 0 0 0 0 0 0 0 0 0 0 0 0 0 0 0 0 0 0 0 0 0 0 0 0 0 0 0 0 0 0 0 0 0 0 0 0 0
0 0 0 0 0 0 0 0 0 0 0 0 0 0 0 0 0 0 0 0 0 0 0 0 0 0 0 0 0 0 0 0 0 0 0 0 0 0 0 0 0 0 0
0 0 0 0 0 0 0 0 0 0 0 0 0 0 0 0 0 0 0 0 0 0 0 0 0 0 0 0 0 0 0 0 0 0 0 0 0 0 0 0 0 0 0
0 0 0 0 0 0 0 0 0 0 0 0 0 0 0 0 0 0 0 0 0 0 0 0 0 0 0 0 0 0 0 0 0 0 0 0 0 0 0 0 0 0 0
0 0 0 0 0 0 0 0 0 0 0 0 0 0 0 0 0 0 0 0 0 0 0 0 0 0 0 0 0 0 0 0 0 0 0 0 0 0 0 0 0 0 1
0 0 0 0 0 0 0 0 0 0 0 0 0 0 0 0 0 0 0 0 0 0 0 0 0 0 0 0 0 0 0 0 0 0 0 0 0 0 0 0 0 0 1
0 0 0 0 0 0 0 0 0 0 0 0 0 0 0 0 0 0 0 0 0 0 0 0 0 0 0 0 0 0 0 0 0 0 0 0 0 0 0 0 0 0 1
0 0 0 0 0 0 0 0 0 0 0 0 0 0 0 0 0 0 0 0 0 0 0 0 0 0 0 0 0 0 0 0 0 0 0 0 0 0 0 0 0 0 0
0 0 0 0 0 0 0 0 0 0 0 0 0 0 0 0 0 0 0 0 0 0 0 0 0 0 0 0 0 0 0 0 0 0 0 0 0 0 0 0 0 0 0
0 0 0 0 0 0 0 0 0 0 0 0 0 0 0 0 0 0 0 0 0 0 0 0 0 0 0 0 0 0 0 0 0 0 0 0 0 0 0 0 0 0 0
0 0 0 0 0 0 0 0 0 0 0 0 0 0 0 0 0 0 0 0 0 0 0 0 0 0 0 0 0 0 0 0 0 0 0 0 0 0 0 0 0 0 0
0 0 0 0 0 0 0 0 0 0 0 0 0 0 0 0 0 0 0 0 0 0 0 0 0 0 0 0 0 0 0 0 0 0 0 0 0 0 0 0 0 0 0
0 0 0 0 0 0 0 0 0 0 0 0 0 0 0 0 0 0 0 0 0 0 0 0 0 0 0 0 0 0 0 0 0 0 0 0 0 0 0 0 0 0 0
0 0 0 0 0 0 0 0 0 0 0 0 0 0 0 0 0 0 0 0 0 0 0 0 0 0 0 0 0 0 0 0 0 0 0 0 0 0 0 0 0 0 0
0 0 0 0 0 0 0 0 0 0 0 0 0 0 0 0 0 0 0 0 0 0 0 0 0 0 0 0 0 0 0 0 0 0 0 0 0 0 0 0 0 0 0
0 0 0 0 0 0 0 0 0 0 0 0 0 0 0 0 0 0 0 0 0 0 0 0 0 0 0 0 0 0 0 0 0 0 0 0 0 0 0 0 0 0 0
0 0 0 0 0 0 0 0 0 0 0 0 0 0 0 0 0 0 0 0 0 0 0 0 0 0 0 0 0 0 0 0 0 0 0 0 0 0 0 0 0 0 0
Wind_Speed_500mb
14 13 13 10 9 8 5 5 4 2 1 2 5 6 6 8 12 14 14 21 27 23 20 19 20 19 15 14 14 20 21 20 20 22 19 19 20 20 20 18 17 18 16
22 19 19 17 14 13 11 11 11 7 8 11 13 12 10 16 19 21 22 27 30 29 27 27 27 24 23 22 23 22 24 26 26 25 27 26 27 25 25 22 20 18 18
28 26 25 22 17 17 18 19 19 17 14 19 21 21 23 23 24 31 33 31 32 32 34 36 37 36 34 31 30 29 30 31 33 33 37 36 31 32 30 28 25 22 22
32 33 33 27 27 26 25 26 29 29 35 31 34 34 33 36 39 43 44 44 43 40 42 44 45 46 42 40 41 39 40 40 38 39 38 38 38 37 36 34 32 29 26
34 36 37 32 33 36 36 35 36 39 42 47 49 47 49 50 53 51 56 56 56 56 54 55 54 55 56 51 49 48 48 47 46 46 44 45 44 43 41 39 37 34 29
36 40 43 38 39 43 45 45 47 47 49 48 56 58 63 61 63 62 65 66 67 66 67 67 67 66 67 67 61 56 55 56 56 58 56 52 50 48 46 43 40 38 34
44 46 47 48 47 53 52 57 58 58 57 59 67 66 72 75 74 70 72 73 71 73 75 76 77 77 77 78 75 66 62 62 66 69 67 61 57 54 51 48 46 41 37
51 51 53 54 54 54 59 65 68 70 73 73 75 73 62 61 77 74 75 77 75 73 75 82 83 85 85 85 86 85 75 72 71 74 75 71 65 62 60 57 52 48 44
52 53 55 57 56 58 61 62 65 73 88 90 85 79 30 37 52 61 65 66 69 72 69 75 81 80 87 92 93 95 93 89 81 83 83 85 75 70 66 62 59 55 50
50 53 54 55 56 56 58 58 61 70 69 85 83 97 93 92 68 64 64 58 65 74 81 82 82 83 85 93 92 97 102 101 99 97 92 92 90 78 73 69 64 58 54
48 51 53 54 57 56 56 61 64 67 70 75 83 83 86 94 97 100 84 73 84 86 89 93 86 90 85 87 97 95 100 106 109 110 107 106 95 91 82 73 67 62 58
42 45 47 50 55 56 60 62 70 73 77 78 81 81 88 90 81 84 89 100 95 102 102 106 99 92 93 91 90 90 93 93 112 114 118 114 112 98 96 83 70 67 62
37 41 43 47 49 54 64 70 69 80 76 81 81 85 84 97 82 93 101 102 104 105 91 98 102 101 95 93 93 89 88 92 96 103 120 121 121 116 113 105 84 72 65
26 29 34 40 45 51 58 65 71 76 76 83 84 87 89 94 98 88 98 91 95 92 100 109 99 94 95 88 87 74 81 73 76 81 95 115 127 128 125 120 98 84 72
26 30 33 37 40 44 48 53 60 68 75 81 83 87 89 93 94 95 94 95 96 93 110 86 83 84 82 83 79 82 81 78 72 78 81 87 116 129 129 126 108 96 80
31 33 36 40 44 47 50 55 60 61 67 72 76 81 84 86 89 95 96 98 100 102 104 105 84 89 85 91 94 87 82 83 79 80 82 84 94 123 119 129 119 95 79
36 39 41 44 46 47 48 55 60 65 70 73 75 80 85 84 89 91 92 96 100 98 104 130 100 100 107 104 97 90 87 83 85 83 80 81 80 111 115 121 112 86 73
39 41 44 47 51 53 54 56 59 61 67 73 75 78 83 84 88 87 89 95 100 97 105 108 110 101 107 102 98 93 90 88 85 83 79 77 70 99 118 114 96 82 71
47 50 53 55 56 58 61 64 68 69 69 71 73 76 79 79 84 83 82 90 90 96 98 104 114 103 106 105 101 98 95 91 89 85 81 78 63 96 110 99 85 75 79
59 60 61 63 63 63 64 68 72 75 78 81 81 81 80 78 78 79 81 82 88 90 91 100 106 105 104 106 102 101 98 94 92 86 85 75 62 91 96 87 77 80 78
63 65 66 65 66 67 66 68 70 73 77 79 79 79 81 81 81 76 69 74 75 82 83 90 100 98 98 104 105 101 97 90 88 81 77 73 64 73 94 83 81 87 80
73 74 73 76 76 71 69 71 73 76 76 80 83 82 82 83 82 78 70 66 71 78 88 92 95 93 100 99 100 98 92 82 76 78 68 68 57 64 82 84 82 75 73
78 79 79 80 82 82 78 76 74 77 80 80 81 82 84 82 82 79 72 67 71 73 77 80 89 97 98 96 98 94 89 80 75 71 52 51 56 72 84 84 79 70 60
80 83 84 84 87 88 85 85 82 80 79 79 80 81 80 81 78 75 74 76 75 75 73 72 80 89 90 87 88 90 80 62 56 56 41 42 54 65 77 75 72 66 51
83 85 87 89 90 90 88 87 86 85 85 84 80 77 73 74 73 65 68 75 78 78 71 68 73 77 79 71 65 61 62 53 46 48 40 50 56 66 70 77 68 57 63
83 84 85 83 86 89 86 86 84 83 85 84 81 76 66 60 62 65 66 69 75 74 69 62 58 57 54 49 49 42 47 48 45 35 50 59 50 72 43 67 71 74 53
Wind_Direction_500mb
251 250 248 251 243 242 240 220 212 200 27 332 331 332 305 286 279 291 274 303 309 316 298 292 283 277 266 247 230 228 224 215 200 210 192 188 182 176 169 181 181 167 166
249 251 252 253 259 254 250 242 239 246 283 298 307 290 279 296 292 288 285 295 305 307 296 295 293 282 284 260 262 245 226 225 214 208 205 200 198 194 188 179 181 186 188
251 252 252 253 262 266 264 264 252 254 271 285 286 297 278 286 285 279 274 275 282 292 290 287 289 285 281 279 268 253 240 239 250 235 219 215 215 212 206 205 195 190 205
253 255 256 256 252 255 258 262 270 270 268 272 274 275 274 272 272 269 267 266 264 263 273 272 274 277 264 242 234 236 230 230 229 227 230 223 217 220 219 217 215 214 213
254 256 256 257 256 254 256 257 260 265 272 273 271 270 271 271 269 271 271 270 268 266 266 269 266 265 268 253 240 238 237 234 233 230 229 228 225 225 225 222 221 220 219
258 257 258 256 261 261 263 263 261 260 265 267 272 272 273 274 274 276 278 273 273 269 266 266 268 267 264 263 257 249 242 246 240 238 234 232 228 226 227 229 227 226 224
262 261 262 262 260 262 268 265 263 265 264 266 266 269 269 269 270 274 274 269 275 272 268 268 267 270 268 267 264 250 244 242 244 247 247 233 228 229 229 228 229 230 231
269 270 267 266 268 269 267 265 265 265 263 265 262 263 264 274 272 282 278 276 273 273 269 266 267 267 269 267 266 263 252 243 244 244 241 240 231 229 227 228 231 231 233
273 273 272 273 274 276 277 279 279 276 268 265 263 257 251 264 276 282 273 274 272 268 272 273 271 270 271 269 266 265 264 264 249 243 245 240 237 231 229 229 228 230 232
277 279 279 277 275 278 277 279 280 280 281 278 278 266 267 271 263 279 274 276 272 273 277 276 273 270 270 267 270 269 267 264 263 256 250 243 240 232 230 228 229 228 229
280 277 276 278 280 279 279 277 274 277 275 278 281 278 280 273 265 262 274 275 281 277 280 280 273 273 272 274 268 271 270 266 263 260 260 246 240 240 232 227 227 229 228
271 277 276 277 281 282 281 282 280 279 277 278 279 279 279 273 277 275 273 283 286 283 287 282 284 280 278 279 274 273 275 274 264 262 260 252 244 240 237 228 225 227 227
275 269 267 266 269 275 280 282 279 280 279 280 281 281 279 278 276 282 277 280 281 286 284 284 284 284 281 281 280 281 276 280 267 265 260 253 247 241 240 234 233 224 224
309 301 294 287 283 276 269 265 266 270 275 275 278 277 281 279 279 279 281 282 278 282 284 285 287 285 286 284 285 280 282 276 272 271 267 261 248 243 239 238 231 222 219
320 312 305 300 297 294 290 284 278 275 272 272 275 275 274 277 277 278 279 279 277 277 282 278 282 284 282 284 282 286 285 279 278 278 271 265 252 245 239 237 230 222 216
323 317 311 306 301 297 293 290 288 284 281 279 279 281 280 278 278 276 276 276 275 274 274 281 277 282 281 282 284 287 284 282 280 278 276 268 257 246 235 232 232 221 216
326 324 321 318 315 309 303 297 293 290 287 286 284 283 282 281 279 279 280 277 274 271 268 283 279 279 283 286 286 287 285 280 283 279 275 275 259 243 232 229 233 219 227
331 327 323 320 317 316 313 308 303 299 294 291 289 285 284 284 281 277 274 277 274 272 273 272 283 283 284 287 287 286 285 283 282 280 278 274 261 238 227 229 225 220 223
331 328 324 320 316 314 312 310 308 306 303 301 298 295 293 289 286 284 279 277 274 273 273 275 279 283 282 284 284 284 283 283 281 279 273 268 254 234 235 230 221 218 215
324 322 321 320 318 315 312 307 304 302 302 301 301 301 300 296 291 287 283 279 276 274 276 275 276 279 280 280 280 279 281 281 280 282 275 269 256 232 233 219 220 217 214
316 316 315 313 314 314 315 311 306 303 301 300 300 300 299 298 295 291 284 281 275 275 276 275 277 278 274 277 279 283 282 284 283 278 272 266 253 232 225 222 221 214 211
313 312 312 312 312 311 311 309 308 305 303 301 300 298 297 296 295 293 287 279 272 270 271 273 275 273 276 277 282 283 284 279 273 275 271 265 249 228 225 214 212 210 215
311 310 309 308 308 309 310 307 306 303 303 303 302 301 300 299 297 296 293 285 276 270 267 271 273 274 276 277 279 279 279 278 274 270 272 248 238 224 219 212 209 211 213
310 310 308 308 307 307 309 309 309 306 303 301 300 300 299 298 298 299 296 289 283 280 276 272 270 273 274 276 274 277 280 277 263 258 255 217 217 209 212 208 206 207 216
305 304 305 305 305 305 307 307 307 306 304 303 302 298 296 297 298 295 291 292 293 290 287 280 277 276 275 274 271 269 257 250 240 241 231 216 209 199 202 206 215 225 225
302 303 302 303 304 305 307 307 306 305 303 304 303 300 299 300 299 298 294 292 290 292 293 292 286 281 277 267 267 260 260 253 228 224 211 209 206 203 194 215 219 218 222
Wind_Speed_850mb
14 13 13 10 9 8 5 5 4 2 1 2 5 6 6 8 12 14 14 21 27 23 20 19 20 19 15 14 14 20 21 20 20 22 19 19 20 20 20 18 17 18 16
22 19 19 17 14 13 11 11 11 7 8 11 13 12 10 16 19 21 22 27 30 29 27 27 27 24 23 22 23 22 24 26 26 25 27 26 27 25 25 22 20 18 18
28 26 25 22 17 17 18 19 19 17 14 19 21 21 23 23 24 31 33 31 32 32 34 36 37 36 34 31 30 29 30 31 33 33 37 36 31 32 30 28 25 22 22
32 33 33 27 27 26 25 26 29 29 35 31 34 34 33 36 39 43 44 44 43 40 42 44 45 46 42 40 41 39 40 40 38 39 38 38 38 37 36 34 32 29 26
34 36 37 32 33 36 36 35 36 39 42 47 49 47 49 50 53 51 56 56 56 56 54 55 54 55 56 51 49 48 48 47 46 46 44 45 44 43 41 39 37 34 29
36 40 43 38 39 43 45 45 47 47 49 48 56 58 63 61 63 62 65 66 67 66 67 67 67 66 67 67 61 56 55 56 56 58 56 52 50 48 46 43 40 38 34
44 46 47 48 47 53 52 57 58 58 57 59 67 66 72 75 74 70 72 73 71 73 75 76 77 77 77 78 75 66 62 62 66 69 67 61 57 54 51 48 46 41 37
51 51 53 54 54 54 59 65 68 70 73 73 75 73 62 61 77 74 75 77 75 73 75 82 83 85 85 85 86 85 75 72 71 74 75 71 65 62 60 57 52 48 44
52 53 55 57 56 58 61 62 65 73 88 90 85 79 30 37 52 61 65 66 69 72 69 75 81 80 87 92 93 95 93 89 81 83 83 85 75 70 66 62 59 55 50
50 53 54 55 56 56 58 58 61 70 69 85 83 97 93 92 68 64 64 58 65 74 81 82 82 83 85 93 92 97 102 101 99 97 92 92 90 78 73 69 64 58 54
48 51 53 54 57 56 56 61 64 67 70 75 83 83 86 94 97 100 84 73 84 86 89 93 86 90 85 87 97 95 100 106 109 110 107 106 95 91 82 73 67 62 58
42 45 47 50 55 56 60 62 70 73 77 78 81 81 88 90 81 84 89 100 95 102 102 106 99 92 93 91 90 90 93 93 112 114 118 114 112 98 96 83 70 67 62
37 41 43 47 49 54 64 70 69 80 76 81 81 85 84 97 82 93 101 102 104 105 91 98 102 101 95 93 93 89 88 92 96 103 120 121 121 116 113 105 84 72 65
26 29 34 40 45 51 58 65 71 76 76 83 84 87 89 94 98 88 98 91 95 92 100 109 99 94 95 88 87 74 81 73 76 81 95 115 127 128 125 120 98 84 72
26 30 33 37 40 44 48 53 60 68 75 81 83 87 89 93 94 95 94 95 96 93 110 86 83 84 82 83 79 82 81 78 72 78 81 87 116 129 129 126 108 96 80
31 33 36 40 44 47 50 55 60 61 67 72 76 81 84 86 89 95 96 98 100 102 104 105 84 89 85 91 94 87 82 83 79 80 82 84 94 123 119 129 119 95 79
36 39 41 44 46 47 48 55 60 65 70 73 75 80 85 84 89 91 92 96 100 98 104 130 100 100 107 104 97 90 87 83 85 83 80 81 80 111 115 121 112 86 73
39 41 44 47 51 53 54 56 59 61 67 73 75 78 83 84 88 87 89 95 100 97 105 108 110 101 107 102 98 93 90 88 85 83 79 77 70 99 118 114 96 82 71
47 50 53 55 56 58 61 64 68 69 69 71 73 76 79 79 84 83 82 90 90 96 98 104 114 103 106 105 101 98 95 91 89 85 81 78 63 96 110 99 85 75 79
59 60 61 63 63 63 64 68 72 75 78 81 81 81 80 78 78 79 81 82 88 90 91 100 106 105 104 106 102 101 98 94 92 86 85 75 62 91 96 87 77 80 78
63 65 66 65 66 67 66 68 70 73 77 79 79 79 81 81 81 76 69 74 75 82 83 90 100 98 98 104 105 101 97 90 88 81 77 73 64 73 94 83 81 87 80
73 74 73 76 76 71 69 71 73 76 76 80 83 82 82 83 82 78 70 66 71 78 88 92 95 93 100 99 100 98 92 82 76 78 68 68 57 64 82 84 82 75 73
78 79 79 80 82 82 78 76 74 77 80 80 81 82 84 82 82 79 72 67 71 73 77 80 89 97 98 96 98 94 89 80 75 71 52 51 56 72 84 84 79 70 60
80 83 84 84 87 88 85 85 82 80 79 79 80 81 80 81 78 75 74 76 75 75 73 72 80 89 90 87 88 90 80 62 56 56 41 42 54 65 77 75 72 66 51
83 85 87 89 90 90 88 87 86 85 85 84 80 77 73 74 73 65 68 75 78 78 71 68 73 77 79 71 65 61 62 53 46 48 40 50 56 66 70 77 68 57 63
83 84 85 83 86 89 86 86 84 83 85 84 81 76 66 60 62 65 66 69 75 74 69 62 58 57 54 49 49 42 47 48 45 35 50 59 50 72 43 67 71 74 53
Wind_Direction_850mb
251 250 248 251 243 242 240 220 212 200 27 332 331 332 305 286 279 291 274 303 309 316 298 292 283 277 266 247 230 228 224 215 200 210 192 188 182 176 169 181 181 167 166
249 251 252 253 259 254 250 242 239 246 283 298 307 290 279 296 292 288 285 295 305 307 296 295 293 282 284 260 262 245 226 225 214 208 205 200 198 194 188 179 181 186 188
251 252 252 253 262 266 264 264 252 254 271 285 286 297 278 286 285 279 274 275 282 292 290 287 289 285 281 279 268 253 240 239 250 235 219 215 215 212 206 205 195 190 205
253 255 256 256 252 255 258 262 270 270 268 272 274 275 274 272 272 269 267 266 264 263 273 272 274 277 264 242 234 236 230 230 229 227 230 223 217 220 219 217 215 214 213
254 256 256 257 256 254 256 257 260 265 272 273 271 270 271 271 269 271 271 270 268 266 266 269 266 265 268 253 240 238 237 234 233 230 229 228 225 225 225 222 221 220 219
258 257 258 256 261 261 263 263 261 260 265 267 272 272 273 274 274 276 278 273 273 269 266 266 268 267 264 263 257 249 242 246 240 238 234 232 228 226 227 229 227 226 224
262 261 262 262 260 262 268 265 263 265 264 266 266 269 269 269 270 274 274 269 275 272 268 268 267 270 268 267 264 250 244 242 244 247 247 233 228 229 229 228 229 230 231
269 270 267 266 268 269 267 265 265 265 263 265 262 263 264 274 272 282 278 276 273 273 269 266 267 267 269 267 266 263 252 243 244 244 241 240 231 229 227 228 231 231 233
273 273 272 273 274 276 277 279 279 276 268 265 263 257 251 264 276 282 273 274 272 268 272 273 271 270 271 269 266 265 264 264 249 243 245 240 237 231 229 229 228 230 232
277 279 279 277 275 278 277 279 280 280 281 278 278 266 267 271 263 279 274 276 272 273 277 276 273 270 270 267 270 269 267 264 263 256 250 243 240 232 230 228 229 228 229
280 277 276 278 280 279 279 277 274 277 275 278 281 278 280 273 265 262 274 275 281 277 280 280 273 273 272 274 268 271 270 266 263 260 260 246 240 240 232 227 227 229 228
271 277 276 277 281 282 281 282 280 279 277 278 279 279 279 273 277 275 273 283 286 283 287 282 284 280 278 279 274 273 275 274 264 262 260 252 244 240 237 228 225 227 227
275 269 267 266 269 275 280 282 279 280 279 280 281 281 279 278 276 282 277 280 281 286 284 284 284 284 281 281 280 281 276 280 267 265 260 253 247 241 240 234 233 224 224
309 301 294 287 283 276 269 265 266 270 275 275 278 277 281 279 279 279 281 282 278 282 284 285 287 285 286 284 285 280 282 276 272 271 267 261 248 243 239 238 231 222 219
320 312 305 300 297 294 290 284 278 275 272 272 275 275 274 277 277 278 279 279 277 277 282 278 282 284 282 284 282 286 285 279 278 278 271 265 252 245 239 237 230 222 216
323 317 311 306 301 297 293 290 288 284 281 279 279 281 280 278 278 276 276 276 275 274 274 281 277 282 281 282 284 287 284 282 280 278 276 268 257 246 235 232 232 221 216
326 324 321 318 315 309 303 297 293 290 287 286 284 283 282 281 279 279 280 277 274 271 268 283 279 279 283 286 286 287 285 280 283 279 275 275 259 243 232 229 233 219 227
331 327 323 320 317 316 313 308 303 299 294 291 289 285 284 284 281 277 274 277 274 272 273 272 283 283 284 287 287 286 285 283 282 280 278 274 261 238 227 229 225 220 223
331 328 324 320 316 314 312 310 308 306 303 301 298 295 293 289 286 284 279 277 274 273 273 275 279 283 282 284 284 284 283 283 281 279 273 268 254 234 235 230 221 218 215
324 322 321 320 318 315 312 307 304 302 302 301 301 301 300 296 291 287 283 279 276 274 276 275 276 279 280 280 280 279 281 281 280 282 275 269 256 232 233 219 220 217 214
316 316 315 313 314 314 315 311 306 303 301 300 300 300 299 298 295 291 284 281 275 275 276 275 277 278 274 277 279 283 282 284 283 278 272 266 253 232 225 222 221 214 211
313 312 312 312 312 311 311 309 308 305 303 301 300 298 297 296 295 293 287 279 272 270 271 273 275 273 276 277 282 283 284 279 273 275 271 265 249 228 225 214 212 210 215
311 310 309 308 308 309 310 307 306 303 303 303 302 301 300 299 297 296 293 285 276 270 267 271 273 274 276 277 279 279 279 278 274 270 272 248 238 224 219 212 209 211 213
310 310 308 308 307 307 309 309 309 306 303 301 300 300 299 298 298 299 296 289 283 280 276 272 270 273 274 276 274 277 280 277 263 258 255 217 217 209 212 208 206 207 216
305 304 305 305 305 305 307 307 307 306 304 303 302 298 296 297 298 295 291 292 293 290 287 280 277 276 275 274 271 269 257 250 240 241 231 216 209 199 202 206 215 225 225
302 303 302 303 304 305 307 307 306 305 303 304 303 300 299 300 299 298 294 292 290 292 293 292 286 281 277 267 267 260 260 253 228 224 211 209 206 203 194 215 219 218 222